Phoenix-Mesa Gateway Airport, AZ

11:32 PM MST on April 28, 2017 (GMT -0700)
Phoenix-Mesa Gateway Airport

Weather History for KIWA - March, 2014

Change the Weather History Date:

Tuesday, March 4, 2014

  Actual Average Record
Temperature  
Mean Temperature 62 °F -  
Max Temperature 73 °F 69 °F 86 °F (2016)
Min Temperature 51 °F 45 °F 35 °F (2002)
Degree Days  
Heating Degree Days 3    
Growing Degree Days 12 (Base 50)    
Moisture  
Dew Point 47 °F    
Average Humidity 65    
Maximum Humidity 88    
Minimum Humidity 31    
Precipitation  
Precipitation 0.00 in - - ()
Sea Level Pressure  
Sea Level Pressure 29.96 in    
Wind  
Wind Speed 4 mph (SE)    
Max Wind Speed 10 mph    
Max Gust Speed -    
Visibility 12 miles    
Events      
Averages and records for this station are not official NWS values.
T = Trace of Precipitation, MM = Missing Value Source: NWS Daily Summary

Daily Weather History Graph

Daily Weather History Graph

Search for Another Location

Airport or City:

Trip Planner

Search our weather history database for the weather conditions in past years. The results will help you decide how hot, cold, wet, or windy it might be!

Date:

Astronomy

Mar. 04, 2014 Rise Set
Actual Time 6:51 AM MST 6:26 PM MST
Civil Twilight 6:26 AM MST 6:50 PM MST
Nautical Twilight 5:57 AM MST 7:19 PM MST
Astronomical Twilight 5:28 AM MST 7:48 PM MST
Moon 8:52 AM MST (3/4) 10:22 PM MST (3/4)
Length of Visible Light 12h 24m
Length of Day
11h 34m
Waxing Crescent, 15% of the Moon is Illuminated
Mar 4
Waxing Crescent
Mar 8
First Quarter
Mar 16
Full
Mar 23
Last Quarter
Mar 30
New

Hourly Weather History & Observations

Time (MST) Temp. Dew Point Humidity Pressure Visibility Wind Dir Wind Speed Gust Speed Precip Events Conditions
12:15 AM 57.2 °F 46.4 °F 67% 29.99 in 10.0 mi SSW 4.6 mph - N/A   Clear
12:35 AM 57.2 °F 50.0 °F 77% 29.99 in 10.0 mi Calm Calm - N/A   Clear
12:55 AM 55.4 °F 48.2 °F 77% 29.98 in 10.0 mi SE 3.5 mph - N/A   Clear
1:15 AM 55.4 °F 48.2 °F 77% 29.99 in 10.0 mi East 4.6 mph - N/A   Clear
1:35 AM 53.6 °F 50.0 °F 88% 29.98 in 10.0 mi East 5.8 mph - N/A   Clear
1:55 AM 53.6 °F 50.0 °F 88% 29.99 in 10.0 mi East 4.6 mph - N/A   Clear
2:15 AM 53.6 °F 50.0 °F 88% 29.99 in 10.0 mi ENE 4.6 mph - N/A   Clear
2:35 AM 53.6 °F 50.0 °F 88% 29.98 in 10.0 mi East 6.9 mph - N/A   Clear
2:55 AM 53.6 °F 50.0 °F 88% 29.98 in 10.0 mi East 4.6 mph - N/A   Clear
3:15 AM 53.6 °F 50.0 °F 88% 29.99 in 10.0 mi SE 4.6 mph - N/A   Clear
3:35 AM 51.8 °F 48.2 °F 88% 29.98 in 10.0 mi ESE 3.5 mph - N/A   Clear
3:55 AM 51.8 °F 48.2 °F 88% 29.98 in 10.0 mi East 3.5 mph - N/A   Clear
4:15 AM 53.6 °F 50.0 °F 88% 29.98 in 10.0 mi East 3.5 mph - N/A   Clear
4:35 AM 53.6 °F 50.0 °F 88% 29.97 in 10.0 mi East 4.6 mph - N/A   Clear
4:47 AM 53.6 °F 50.0 °F 88% 29.97 in 20.0 mi ESE 4.6 mph - N/A   Mostly Cloudy
4:55 AM 53.6 °F 50.0 °F 88% 29.97 in 10.0 mi SE 5.8 mph - N/A   Clear
5:15 AM 53.6 °F 48.2 °F 82% 29.97 in 10.0 mi SE 6.9 mph - N/A   Clear
5:35 AM 53.6 °F 48.2 °F 82% 29.97 in 10.0 mi ESE 6.9 mph - N/A   Clear
5:47 AM 53.6 °F 48.2 °F 82% 29.97 in 20.0 mi ESE 5.8 mph - N/A   Mostly Cloudy
6:47 AM 53.6 °F 48.2 °F 82% 29.96 in 20.0 mi ESE 5.8 mph - N/A   Mostly Cloudy
7:47 AM 55.4 °F 48.2 °F 77% 29.97 in 35.0 mi ESE 4.6 mph - N/A   Mostly Cloudy
8:47 AM 57.2 °F 50.0 °F 77% 29.96 in 35.0 mi SE 6.9 mph - N/A   Mostly Cloudy
9:55 AM 60.8 °F 48.2 °F 63% 29.97 in 45.0 mi SSE 4.6 mph - N/A   Mostly Cloudy
10:55 AM 62.6 °F 48.2 °F 59% 29.96 in 45.0 mi South 4.6 mph - N/A   Mostly Cloudy
11:50 AM 66.2 °F 46.4 °F 49% 29.95 in 35.0 mi Variable 3.5 mph - N/A   Mostly Cloudy
12:47 PM 71.6 °F 44.6 °F 38% 29.93 in 45.0 mi SSW 4.6 mph - N/A   Mostly Cloudy
1:47 PM 73.4 °F 44.6 °F 36% 29.90 in 35.0 mi Calm Calm - N/A   Mostly Cloudy
2:47 PM 73.4 °F 42.8 °F 33% 29.89 in 45.0 mi WSW 5.8 mph - N/A   Mostly Cloudy
3:47 PM 73.4 °F 41.0 °F 31% 29.88 in 45.0 mi SW 8.1 mph - N/A   Mostly Cloudy
4:47 PM 73.4 °F 42.8 °F 33% 29.88 in 45.0 mi WSW 6.9 mph - N/A   Mostly Cloudy
5:50 PM 73.4 °F 42.8 °F 33% 29.89 in 45.0 mi WNW 10.4 mph - N/A   Mostly Cloudy
6:50 PM 68.0 °F 39.2 °F 35% 29.91 in 20.0 mi WNW 6.9 mph - N/A   Mostly Cloudy
7:47 PM 66.2 °F 42.8 °F 43% 29.93 in 20.0 mi WNW 4.6 mph - N/A   Mostly Cloudy
7:55 PM 64.4 °F 41.0 °F 42% 29.93 in 10.0 mi NW 3.5 mph - N/A   Clear
8:15 PM 64.4 °F 41.0 °F 42% 29.93 in 10.0 mi NNW 3.5 mph - N/A   Clear
8:35 PM 64.4 °F 42.8 °F 45% 29.94 in 10.0 mi Calm Calm - N/A   Clear
8:50 PM 60.8 °F 46.4 °F 59% 29.94 in 20.0 mi Calm Calm - N/A   Mostly Cloudy
8:55 PM 60.8 °F 44.6 °F 55% 29.95 in 10.0 mi SSW 3.5 mph - N/A   Clear
9:15 PM 62.6 °F 44.6 °F 52% 29.95 in 10.0 mi SW 4.6 mph - N/A   Clear
9:30 PM 60.8 °F 44.6 °F 55% 29.95 in 10.0 mi SSW 4.6 mph - N/A   Clear
9:47 PM 60.8 °F 46.4 °F 59% 29.96 in 20.0 mi SE 3.5 mph - N/A   Scattered Clouds
9:55 PM 59.0 °F 46.4 °F 63% 29.96 in 10.0 mi South 3.5 mph - N/A   Clear
10:15 PM 60.8 °F 44.6 °F 55% 29.96 in 10.0 mi SW 4.6 mph - N/A   Clear
10:35 PM 60.8 °F 46.4 °F 59% 29.96 in 10.0 mi Calm Calm - N/A   Clear
10:47 PM 60.8 °F 46.4 °F 59% 29.97 in 20.0 mi Variable 4.6 mph - N/A   Mostly Cloudy
10:55 PM 57.2 °F 44.6 °F 63% 29.97 in 10.0 mi Calm Calm - N/A   Clear
11:15 PM 57.2 °F 46.4 °F 67% 29.97 in 10.0 mi Calm Calm - N/A   Clear
11:35 PM 57.2 °F 46.4 °F 67% 29.98 in 10.0 mi ENE 3.5 mph - N/A   Clear
11:47 PM 57.2 °F 48.2 °F 72% 29.98 in 20.0 mi Variable 4.6 mph - N/A   Mostly Cloudy
11:55 PM 57.2 °F 46.4 °F 67% 29.98 in 10.0 mi ENE 5.8 mph - N/A   Clear